Find Starlink 3839

NORAD ID: 52480 Int'l Des: 2022-049 Owner: SPXS Country: US Constellation: starlink operational
LEOCIRCULAR

Live-Position

3D-Globus wird geladen...

Über Starlink 3839

Beschreibung wird geladen...

Nächste Überflüge

Passes for default location (London). Set your location on the main map for personalized predictions.

Höhenverlauf

Loading altitude history...

Zweizeiliger Elementsatz

1 52480U 22049AF 26105.78889219 .00000358 00000-0 40610-4 0 9993
2 52480 53.2169 252.5732 0001288 85.5157 274.5982 15.08835479217853
Epoch: 15. Apr. 2026 • Age: 22 hours

Aktueller Status

Höhe 539.6 km
Geschwindigkeit 7.60 km/s
Subsatellitenpunkt 14.11°N, 155.29°E
Startdatum 6. Mai 2022
Alter 3.9 years
Typ internet

Technische Details

Klassifizierung Payload
Masse 297.00 kg
Trockenmasse 220.00 kg
Gesamtmasse 297.00 kg
Länge 0.20 m
Durchmesser 2.80 m
Spannweite 9.00 m
Form Box + pan
Hersteller SPXS
Bus-Typ Starlink
Phasenstatus In Orbit
Besitzer/Staat SPXS/US

Most Searched